Latest Flight | Flight Log | Data Trends | Login | Join FlightData.com!
Flight Info - N131SR (Cirrus SR22 Turbo (TAT) #1878)
Date
Origin
Dest
Depart
Arrive
Hobbs
Flight Time
Ground Time
Flight Distance
Taxi Distance
Fuel
Fuel/hr
Fuel/nm
Altitude
Gnd Speed
Sat, May 14, 2022 EDLD EDLD 08:31 09:12 0.68 hrs 0.4 hrs (0:24) 0.28 hrs (0:17) 49.77 nm 1.12 nm 6.5 gal 9.55 gal/hr 0.13 gal/nm 4098 msl 123.05 kts
Flight Track | Google Earth Export: 3D View, Cockpit View
NEXRAD Archive
Zoom In: Double click. Zoom Out: Double right-click.
Scroll Map: Left-click and drag. Show on graph: Click on track.
Graph | Increase Sample Rate (1 sec) |
Zoom In: Click and Drag to the right and down. Zoom Out: Click and Drag to the left.
Scroll Chart (while zoomed in): Hold right mouse-button.
More Flights - N131SR
Thu, Aug 12, 2021 EDXO EDLD 13:35 15:40 2.08 hrs 1.8 hrs 226.09 nm 22.80 gal 10.98 gal/hr 0.10 gal/nm 4669 msl 125 kts
Cruise 14:06:39 14:31:33   24m 54s 57.72 nm 4.98 gal 12 gal/h 0.09 gal/nm 0 feet 128 kts    
Cruise 14:41:15 14:45:45   4m 30s 10.84 nm 0.98 gal 13 gal/h 0.09 gal/nm 0 feet 133 kts    
Cruise 14:53:45 15:09:21   15m 36s 35.14 nm 2.86 gal 11 gal/h 0.08 gal/nm 0 feet 123 kts    
Cruise 15:16:33 15:25:45   9m 12s 20.28 nm 1.84 gal 12 gal/h 0.09 gal/nm 0 feet 125 kts    
Mon, May 9, 2022 EDWG EDLD 16:01 17:25 1.39 hrs 1.13 hrs 141.45 nm 16.50 gal 11.84 gal/hr 0.12 gal/nm 5253 msl 124 kts
Cruise 16:27:42 16:33:00   5m 18s 12.23 nm 1.06 gal 12 gal/h 0.09 gal/nm 0 feet 123 kts    
Cruise 16:45:48 16:49:24   3m 36s 8.44 nm 0.9 gal 15 gal/h 0.11 gal/nm 0 feet 129 kts    
Cruise 16:54:30 16:55:54   1m 24s 3.23 nm 0.21 gal 9 gal/h 0.07 gal/nm 0 feet 125 kts    
Cruise 17:07:30 17:12:30   5m 00s 11.45 nm 1.09 gal 13 gal/h 0.1 gal/nm 0 feet 127 kts    
Fri, Mar 18, 2022 EDLD EDLD 15:58 17:22 1.4 hrs 1.03 hrs 127.94 nm 13.80 gal 9.89 gal/hr 0.11 gal/nm 3438 msl 124 kts
Cruise 16:29:44 16:37:02   7m 18s 16.1 nm 1.59 gal 13 gal/h 0.1 gal/nm 0 feet 118 kts    
Cruise 16:47:20 16:57:08   9m 48s 20.78 nm 1.96 gal 12 gal/h 0.09 gal/nm 0 feet 141 kts    
Cruise 17:08:38 17:10:56   2m 18s 4.87 nm 0.5 gal 13 gal/h 0.1 gal/nm 0 feet 133 kts    
Tue, Nov 9, 2021 EDLD EDKV 10:56 12:25 1.5 hrs 0.95 hrs 118.13 nm 14.60 gal 9.76 gal/hr 0.12 gal/nm 3392 msl 124 kts
Cruise 11:50:34 11:54:46   4m 12s 9.84 nm 0.91 gal 13 gal/h 0.09 gal/nm 0 feet 124 kts    
Cruise 12:04:58 12:14:10   9m 12s 22.12 nm 2 gal 13 gal/h 0.09 gal/nm 0 feet 137 kts    
Tue, Nov 9, 2021 EDLD EDKV 10:56 12:25 1.49 hrs 0.95 hrs 118.15 nm 14.60 gal 9.77 gal/hr 0.12 gal/nm 3386 msl 124 kts
Cruise 11:50:37 11:55:13   4m 36s 10.77 nm 1 gal 13 gal/h 0.09 gal/nm 0 feet 124 kts    
Cruise 12:05:01 12:14:07   9m 06s 21.88 nm 1.98 gal 13 gal/h 0.09 gal/nm 0 feet 138 kts    
Sat, May 15, 2021     15:54 16:36 0.69 hrs 0.37 hrs 0.00 nm 6.30 gal 9.10 gal/hr 0.00 gal/nm 2477 msl 123 kts
Cruise 16:23:46 16:24:58   1m 12s 0 nm 0.41 gal 20 gal/h 0 gal/nm 0 feet 135 kts    
Sat, May 14, 2022 EDLD EDLD 08:31 09:12 0.68 hrs 0.4 hrs 49.77 nm 6.50 gal 9.55 gal/hr 0.13 gal/nm 4098 msl 123 kts
Wed, Feb 2, 2022 EDLD EDLD 13:00 14:19 1.32 hrs 0.88 hrs 107.88 nm 12.30 gal 9.35 gal/hr 0.11 gal/nm 3540 msl 123 kts
Cruise 13:45:40 14:04:22   18m 42s 38.99 nm 3.74 gal 12 gal/h 0.1 gal/nm 0 feet 126 kts    
Sun, Mar 27, 2022 EDLT EDLD 12:16 12:51 0.58 hrs 0.4 hrs 49.00 nm 5.30 gal 9.18 gal/hr 0.11 gal/nm 2149 msl 123 kts
Cruise 12:36:35 12:40:35   4m 00s 8.5 nm 0.8 gal 12 gal/h 0.09 gal/nm 0 feet 128 kts    
Wed, Sep 22, 2021 EDLD EDLS 11:42 12:21 0.65 hrs 0.43 hrs 52.16 nm 6.80 gal 10.39 gal/hr 0.13 gal/nm 3425 msl 122 kts
Tue, Jul 20, 2021 EDLS EDXO 10:52 12:28 1.59 hrs 1.33 hrs 162.16 nm 16.30 gal 10.23 gal/hr 0.10 gal/nm 3189 msl 122 kts
Cruise 11:15:26 11:52:14   36m 48s 80.38 nm 6.75 gal 11 gal/h 0.08 gal/nm 0 feet 123 kts    
Cruise 11:58:14 11:59:26   1m 12s 2.7 nm 0.2 gal 10 gal/h 0.07 gal/nm 0 feet 123 kts    
Cruise 12:04:56 12:06:44   1m 48s 3.91 nm 0.3 gal 10 gal/h 0.08 gal/nm 0 feet 119 kts    
Sun, Oct 24, 2021 EDWY EDLD 14:11 15:34 1.38 hrs 1.13 hrs 136.45 nm 17.70 gal 12.83 gal/hr 0.13 gal/nm 5253 msl 120 kts
Cruise 14:43:44 14:50:38   6m 54s 17.06 nm 1.84 gal 16 gal/h 0.11 gal/nm 0 feet 124 kts    
Cruise 14:55:44 15:04:08   8m 24s 20.76 nm 2.1 gal 15 gal/h 0.1 gal/nm 0 feet 122 kts    
Cruise 15:09:26 15:18:02   8m 36s 21.4 nm 2.15 gal 15 gal/h 0.1 gal/nm 0 feet 116 kts    
Sun, Oct 24, 2021 EDWY EDLD 14:11 15:34 1.38 hrs 1.13 hrs 136.46 nm 17.70 gal 12.83 gal/hr 0.13 gal/nm 5249 msl 120 kts
Cruise 14:43:46 14:50:40   6m 54s 17.18 nm 1.84 gal 16 gal/h 0.11 gal/nm 0 feet 124 kts    
Cruise 14:55:46 15:04:10   8m 24s 20.9 nm 2.1 gal 15 gal/h 0.1 gal/nm 0 feet 122 kts    
Cruise 15:09:28 15:18:04   8m 36s 21.4 nm 2.15 gal 15 gal/h 0.1 gal/nm 0 feet 116 kts    
Complete Flight Log (84)
FlightData.com is sponsored by AEROCOR